Regional Weather Roundup
Issued by NWS

Home | Current Version | Previous Version | Graphics & Text | Print | Product List | Glossary On
Versions: 1 2 3 4 5 6 7 8 9 10 11 12 13 14 15 16 17 18 19 20 21 22 23 24 25 26 27 28 29 30 31 32 33 34 35 36 37 38 39 40 41 42 43 44 45 46 47 48 49 50
000
ASUS43 KMKX 010610
RWRWI

WISCONSIN REGIONAL WEATHER ROUNDUP
NATIONAL WEATHER SERVICE MILWAUKEE/SULLIVAN WI
1200 AM CST SUN FEB 01 2015

NOTE: "FAIR" INDICATES FEW OR NO CLOUDS BELOW 12,000 FEET WITH NO
SIGNIFICANT WEATHER AND/OR OBSTRUCTIONS TO VISIBILITY.

WIZ001-002-006>008-014>016-023>028-010700-
NORTHWEST WISCONSIN

CITY           SKY/WX    TMP DP  RH WIND       PRES   REMARKS
SUPERIOR ARPT  CLOUDY     9   0  65 NE10G16   30.38F WCI  -5
6HR MIN TEMP:   9; 6HR MAX TEMP:  19;

ASHLAND        CLOUDY    15   6  67 NE12      30.35R WCI   2
6HR MIN TEMP:  13; 6HR MAX TEMP:  17; 6HR PCP: TRACE;

HAYWARD        CLOUDY    13   5  70 NE7       30.29R WCI   3
6HR MIN TEMP:  12; 6HR MAX TEMP:  17;

SIREN          CLOUDY    15   5  67 NE8       30.29S WCI   3
6HR MIN TEMP:  15; 6HR MAX TEMP:  22;

CUMBERLAND     CLOUDY    14   7  73 NE17      30.23F WCI  -3
RICE LAKE      CLOUDY    16   8  68 NE12      30.26S WCI   3
6HR MIN TEMP:  16; 6HR MAX TEMP:  24;

CHETEK         CLOUDY    16   8  71 N7        30.24F WCI   6
6HR MIN TEMP:  16; 6HR MAX TEMP:  24;

LADYSMITH      CLOUDY    15   6  67 NE10G20   30.27R WCI   2
6HR MIN TEMP:  15; 6HR MAX TEMP:  20;

EAU CLAIRE     CLOUDY    19   8  62 NE16      30.21F WCI   4
6HR MIN TEMP:  19; 6HR MAX TEMP:  26;

MENOMONIE      CLOUDY    19  10  65 NE13G18   30.22F WCI   7
6HR MIN TEMP:  19; 6HR MAX TEMP:  27;

NEW RICHMOND   CLOUDY    17   9  68 NE9G17    30.23S WCI   6
6HR MIN TEMP:  17; 6HR MAX TEMP:  25;

OSCEOLA        CLOUDY    18   9  67 NE16      30.27S WCI   4
6HR MIN TEMP:  18; 6HR MAX TEMP:  27;

$$

WIZ003>005-009-010-017-018-010700-
NORTH CENTRAL WISCONSIN

CITY           SKY/WX    TMP DP  RH WIND       PRES   REMARKS
MANITOWISH WTR CLOUDY     6   0  75 E10       30.26R WCI  -9
6HR MIN TEMP:   6; 6HR MAX TEMP:  14;

ARBOR VITAE    CLOUDY    11   4  73 NE7       30.26R WCI   1
6HR MIN TEMP:  11; 6HR MAX TEMP:  17;

WOODRUFF       CLOUDY    11   4  73 NE7       30.26R WCI   1
6HR MIN TEMP:  11; 6HR MAX TEMP:  17;

RHINELANDER    CLOUDY     8   0  69 NE9G18    30.25R WCI  -5
6HR MIN TEMP:   8; 6HR MAX TEMP:  17;

EAGLE RIVER    CLOUDY     7  -1  70 E10       30.26R WCI  -8
6HR MIN TEMP:   7; 6HR MAX TEMP:  15;

LAND O LAKES   MOCLDY     5   1  81 N6        30.27S WCI  -6
6HR MIN TEMP:   5; 6HR MAX TEMP:  14;

PHILLIPS       CLOUDY    10   2  70 NE7       30.25R WCI  -1
6HR MIN TEMP:  10; 6HR MAX TEMP:  15;

TOMAHAWK       CLOUDY    11   3  69 NE10      30.25R WCI  -2
6HR MIN TEMP:  11; 6HR MAX TEMP:  19;

MEDFORD        CLOUDY    14   6  71 NE13      30.20S WCI   0
6HR MIN TEMP:  14; 6HR MAX TEMP:  22;

MERRILL        CLOUDY    14   6  69 E9        30.24S WCI   2
6HR MIN TEMP:  14; 6HR MAX TEMP:  23;

$$

WIZ029-030-035-036-043>047-010700-
CENTRAL WISCONSIN

CITY           SKY/WX    TMP DP  RH WIND       PRES   REMARKS
WAUSAU         CLOUDY    16   7  67 NE9       30.22R WCI   4
6HR MIN TEMP:  16; 6HR MAX TEMP:  24;

MOSINEE        CLOUDY    19  12  73 NE14      30.22S WCI   6
MARSHFIELD     CLOUDY    20  11  68 NE17      30.19S WCI   5
6HR MIN TEMP:  20; 6HR MAX TEMP:  26;

STEVENS POINT  CLOUDY    19  13  77 E12       30.22S WCI   6
6HR MIN TEMP:  19; 6HR MAX TEMP:  25;

WAUPACA        CLOUDY    20  11  68 E12G17    30.26R WCI   8
6HR MIN TEMP:  20; 6HR MAX TEMP:  30;

WAUTOMA        CLOUDY    21  13  71 NE17      30.23R WCI   7
6HR MIN TEMP:  21; 6HR MAX TEMP:  28;

WISC RAPIDS    CLOUDY    23  16  74 E16       30.21S WCI  10
6HR MIN TEMP:  23; 6HR MAX TEMP:  27;

CAMP DOUGLAS   LGT SNOW  25  25 100 E9        30.17S FOG     WCI  15
6HR MIN TEMP:  25; 6HR MAX TEMP:  28; 6HR PCP: TRACE;

$$

WIZ011>013-019>022-031-037>040-048>050-010700-
NORTHEAST WISCONSIN

CITY           SKY/WX    TMP DP  RH WIND       PRES   REMARKS
ANTIGO         CLOUDY    12   6  76 E9        30.24R WCI   0
6HR MIN TEMP:  12; 6HR MAX TEMP:  22;

SHAWANO        CLOUDY    17   7  65 NE15      30.30R WCI   2
6HR MIN TEMP:  17; 6HR MAX TEMP:  29;

OCONTO         CLOUDY    13   4  66 MISG      30.32R
6HR MIN TEMP:  13; 6HR MAX TEMP:  26;

STURGEON BAY   CLOUDY    14   3  62 N10       30.32R WCI   1
6HR MIN TEMP:  14; 6HR MAX TEMP:  25;

GREEN BAY      CLOUDY    16   8  71 NE23      30.30R WCI  -2
6HR MIN TEMP:  16; 6HR MAX TEMP:  27; 6HR PCP: TRACE;

MANITOWOC      FLURRIES  21  15  78 NE8       30.27R WCI  11
6HR MIN TEMP:  21; 6HR MAX TEMP:  27;

APPLETON       CLOUDY    18  10  73 NE20      30.27R WCI   1
CLINTONVILLE   CLOUDY    18   9  68 E16       30.28R WCI   3
OSHKOSH        CLOUDY    20  11  68 NE15G23   30.24R WCI   6
6HR MIN TEMP:  20; 6HR MAX TEMP:  27;

$$

WIZ032>034-041-042-053>061-010700-
SOUTHWEST WISCONSIN

CITY           SKY/WX    TMP DP  RH WIND       PRES   REMARKS
LA CROSSE      LGT SNOW  28  23  81 NE8       30.15F WCI  20
6HR MIN TEMP:  28; 6HR MAX TEMP:  31; 6HR PCP:  0.06;

SPARTA         LGT SNOW  26  22  85 NE7       30.17F WCI  18
6HR MIN TEMP:  26; 6HR MAX TEMP:  29;

VIROQUA        CLOUDY    25  25 100 E13       30.10F WCI  13
6HR MIN TEMP:  25; 6HR MAX TEMP:  28; 6HR PCP:  0.03;

BOSCOBEL       LGT SNOW  28  24  85 NE9       30.13F FOG     WCI  19
6HR MIN TEMP:  28; 6HR MAX TEMP:  33; 6HR PCP:  0.12;

PRAIRIE DU CHI LGT SNOW  28  25  87 E9        30.10F WCI  20
6HR MIN TEMP:  28; 6HR MAX TEMP:  33;

PLATTEVILLE    CLOUDY    28  27  95 NE14      30.08F VSB 1   WCI  17
6HR MIN TEMP:  28; 6HR MAX TEMP:  32; 6HR PCP:  0.03;

$$

WIZ056-057-062-063-064-067-068-010700-
SOUTH CENTRAL WISCONSIN

CITY           SKY/WX    TMP DP  RH WIND       PRES   REMARKS
REEDSBURG      LGT SNOW  24  22  92 E12       30.15F WCI  13
6HR MIN TEMP:  24; 6HR MAX TEMP:  29; 6HR PCP:  0.01;

BARABOO/DELLS  SNOW      24  22  91 E12G17    30.16S VSB 1/2 WCI  13
6HR MIN TEMP:  24; 6HR MAX TEMP:  29; 6HR PCP:  0.02;

LONE ROCK      LGT SNOW  27  23  85 E13       30.14F FOG     WCI  16
6HR MIN TEMP:  27; 6HR MAX TEMP:  32; 6HR PCP:  0.09;

MINERAL POINT  LGT SNOW  28  27  93 E13G18    30.09F WCI  18
MADISON        LGT SNOW  26  23  88 NE13      30.15F FOG     WCI  15
6HR MIN TEMP:  26; 6HR MAX TEMP:  31; 6HR PCP:  0.13;

MIDDLETON      CLOUDY    28  26  94 E10       30.15F VSB 1   WCI  18
6HR MIN TEMP:  28; 6HR MAX TEMP:  33; 6HR PCP:  0.04;

WATERTOWN      LGT SNOW  26  26  99 NE8       30.16F WCI  17
6HR MIN TEMP:  26; 6HR MAX TEMP:  31; 6HR PCP:  0.01;

MONROE         LGT SNOW  28  28 100 E10G20    30.10F VSB 1   WCI  19
JANESVILLE     LGT SNOW  30  30 100 E10       30.13F WCI  21
$$

WIZ051-052-058>065-066-070>072-010700-
SOUTHEAST WISCONSIN

CITY           SKY/WX    TMP DP  RH WIND       PRES   REMARKS
MILWAUKEE      LGT SNOW  29  26  89 E12       30.19S VSB 1   WCI  19
6HR MIN TEMP:  29; 6HR MAX TEMP:  32; 6HR PCP:  0.13;

WAUKESHA       LGT SNOW  27  27 100 NE8       30.18S VSB 1   WCI  18
MILWAUKEE/TIMM LGT SNOW  30  27  86 NE7       30.20R WCI  23
RACINE         LGT SNOW  30  27  88 NE13      30.19S VSB 1   WCI  20
6HR MIN TEMP:  30; 6HR MAX TEMP:  32; 6HR PCP: TRACE;

BURLINGTON     LGT SNOW  28  27  98 NE8       30.15F WCI  20
6HR MIN TEMP:  27; 6HR MAX TEMP:  31; 6HR PCP:  0.05;

KENOSHA        LGT SNOW  30  28  92 NE14      30.16F VSB 1   WCI  19
6HR MIN TEMP:  30; 6HR MAX TEMP:  32; 6HR PCP: TRACE;

FOND DU LAC    LGT SNOW  22  15  75 NE14      30.23R WCI   9
6HR MIN TEMP:  23; 6HR MAX TEMP:  27; 6HR PCP: TRACE;

SHEBOYGAN      CLOUDY    24  18  77 NE20G26   30.23R WCI  10
6HR MIN TEMP:  24; 6HR MAX TEMP:  28;

WEST BEND      LGT SNOW  27  21  80 NE15G23   30.20S WCI  15
JUNEAU         LGT SNOW  25  23  92 NE9       30.19F VSB 1   WCI  15
6HR MIN TEMP:  25; 6HR MAX TEMP:  27; 6HR PCP:  0.01;

$$

LSZ147-162-010700-
LAKE SUPERIOR

STATION/POSITION TIME  TEMP    WIND        PRES    WAVE
                       AIR SEA DIR/SP/G            HT/PER
                 (UTC) (F)     (DEG/KT/KT) (MB)    (FT/S)
DEVILS ISLAND    0600   13      60/ 22/ 26 1030.9R
PORT WING        0500   16      60/ 11/ 18 1028.1R
SAXON HARBOR     0500   15      70/  2/ 10 1027.4R
$$

LMZ867-665-643>646-010700-
LAKE MICHIGAN

STATION/POSITION TIME  TEMP    WIND        PRES    WAVE


USA.gov is the U.S. government's official web portal to all federal, state and local government web resources and services.